When you browse on this site, cookies collect data to enhance your experience and personalize the content and advertising you see.
Visit our Privacy Policy to learn more. By continuing to use the site, you agree to this use of cookies and data.
  • In Hungary
  • List of Countries
  • For 7 days
  • Water Temperature
  • Satellite Maps
  • Weather Map
  • News
  • Weather Widgets
  • user-avatar
    Login

    Hourly Weather Abuja

    Today, 18 January, Friday

    Time Temperature Precipitation Wind Pressure Humidity
    00:00 +29°C° 0 mm 1 mps 710 mmHg 11%
    01:00 +28°C° 0 mm 1 mps 710 mmHg 11%
    02:00 +28°C° 0 mm 1 mps 710 mmHg 11%
    03:00 +27°C° 0 mm 1 mps 710 mmHg 12%
    04:00 +27°C° 0 mm 1 mps 710 mmHg 12%
    05:00 +26°C° 0 mm 1 mps 710 mmHg 12%
    06:00 +26°C° 0 mm 1 mps 710 mmHg 12%
    07:00 +25°C° 0 mm 1 mps 710 mmHg 12%
    08:00 +28°C° 0 mm 1 mps 711 mmHg 11%
    09:00 +30°C° 0 mm 1 mps 712 mmHg 9%
    10:00 +33°C° 0 mm 1 mps 712 mmHg 8%
    11:00 +34°C° 0 mm 1 mps 712 mmHg 7%
    12:00 +36°C° 0 mm 1 mps 711 mmHg 7%
    13:00 +37°C° 0 mm 1 mps 711 mmHg 6%
    14:00 +39°C° 0 mm 1 mps 710 mmHg 6%
    15:00 +39°C° 0 mm 1 mps 710 mmHg 6%
    16:00 +39°C° 0 mm 1 mps 709 mmHg 6%
    17:00 +37°C° 0 mm 1 mps 709 mmHg 7%
    18:00 +36°C° 0 mm 2 mps 709 mmHg 7%
    19:00 +34°C° 0 mm 2 mps 709 mmHg 8%
    20:00 +32°C° 0 mm 1 mps 709 mmHg 8%
    21:00 +31°C° 0 mm 1 mps 710 mmHg 9%
    22:00 +28°C° 0 mm 0 mps 710 mmHg 9%
    23:00 +30°C° 0 mm 1 mps 710 mmHg 10%

    Tomorrow, 19 January, Saturday

    Time Temperature Precipitation Wind Pressure Humidity
    00:00 +29°C° 0 mm 1 mps 710 mmHg 10%
    01:00 +28°C° 0 mm 1 mps 710 mmHg 11%
    02:00 +28°C° 0 mm 1 mps 710 mmHg 10%
    03:00 +27°C° 0 mm 1 mps 710 mmHg 10%
    04:00 +27°C° 0 mm 2 mps 710 mmHg 10%
    05:00 +26°C° 0 mm 1 mps 710 mmHg 12%
    06:00 +25°C° 0 mm 1 mps 710 mmHg 14%
    07:00 +24°C° 0 mm 1 mps 710 mmHg 16%
    08:00 +26°C° 0 mm 1 mps 711 mmHg 25%
    09:00 +28°C° 0 mm 2 mps 712 mmHg 35%
    10:00 +29°C° 0 mm 2 mps 712 mmHg 44%
    11:00 +31°C° 0 mm 2 mps 712 mmHg 38%
    12:00 +34°C° 0 mm 2 mps 711 mmHg 31%
    13:00 +36°C° 0 mm 2 mps 711 mmHg 24%
    14:00 +37°C° 0 mm 2 mps 710 mmHg 22%
    15:00 +37°C° 0 mm 2 mps 710 mmHg 20%
    16:00 +37°C° 0 mm 1 mps 709 mmHg 18%
    17:00 +36°C° 0 mm 1 mps 709 mmHg 20%
    18:00 +34°C° 0 mm 1 mps 709 mmHg 21%
    19:00 +33°C° 0 mm 1 mps 709 mmHg 23%
    20:00 +32°C° 0 mm 1 mps 710 mmHg 24%
    21:00 +32°C° 0 mm 1 mps 710 mmHg 25%
    22:00 +31°C° 0 mm 1 mps 711 mmHg 26%
    23:00 +29°C° 0 mm 0 mps 711 mmHg 27%

    Day after tomorrow, 20 January, Sunday

    Time Temperature Precipitation Wind Pressure Humidity
    00:00 +28°C° 0 mm 0 mps 710 mmHg 28%
    01:00 +27°C° 0 mm 0 mps 710 mmHg 29%
    02:00 +27°C° 0 mm 0 mps 710 mmHg 31%
    03:00 +28°C° 0 mm 1 mps 710 mmHg 32%
    04:00 +28°C° 0 mm 1 mps 709 mmHg 34%
    05:00 +27°C° 0 mm 1 mps 710 mmHg 40%
    06:00 +27°C° 0 mm 1 mps 710 mmHg 46%
    07:00 +26°C° 0 mm 1 mps 710 mmHg 52%
    08:00 +27°C° 0 mm 1 mps 711 mmHg 53%
    09:00 +29°C° 0 mm 1 mps 712 mmHg 53%
    10:00 +30°C° 0 mm 2 mps 712 mmHg 54%
    11:00 +32°C° 0 mm 2 mps 712 mmHg 47%
    12:00 +35°C° 0 mm 2 mps 711 mmHg 39%
    13:00 +36°C° 0 mm 1 mps 711 mmHg 31%
    14:00 +37°C° 0 mm 1 mps 710 mmHg 28%
    15:00 +37°C° 0 mm 1 mps 709 mmHg 26%
    16:00 +37°C° 0 mm 1 mps 708 mmHg 24%
    17:00 +36°C° 0 mm 1 mps 709 mmHg 25%
    18:00 +35°C° 0 mm 1 mps 709 mmHg 26%
    19:00 +34°C° 0 mm 1 mps 709 mmHg 28%
    20:00 +34°C° 0 mm 1 mps 710 mmHg 29%
    21:00 +33°C° 0 mm 1 mps 710 mmHg 30%
    22:00 +32°C° 0 mm 1 mps 711 mmHg 31%
    23:00 +32°C° 0 mm 1 mps 710 mmHg 33%

    21 January, Monday

    Time Temperature Precipitation Wind Pressure Humidity
    00:00 +31°C° 0 mm 1 mps 710 mmHg 34%
    01:00 +29°C° 0 mm 0 mps 710 mmHg 35%
    02:00 +28°C° 0 mm 0 mps 709 mmHg 36%
    03:00 +28°C° 0 mm 0 mps 709 mmHg 37%
    04:00 +27°C° 0 mm 0 mps 709 mmHg 38%
    05:00 +27°C° 0 mm 0 mps 709 mmHg 40%
    06:00 +29°C° 0 mm 1 mps 710 mmHg 41%
    07:00 +28°C° 0 mm 1 mps 710 mmHg 43%
    08:00 +29°C° 0 mm 1 mps 710 mmHg 46%
    09:00 +30°C° 0 mm 2 mps 711 mmHg 48%
    10:00 +31°C° 0 mm 2 mps 712 mmHg 51%
    11:00 +34°C° 0 mm 2 mps 711 mmHg 46%
    12:00 +35°C° 0 mm 2 mps 711 mmHg 41%
    13:00 +37°C° 0 mm 2 mps 710 mmHg 35%
    14:00 +37°C° 0 mm 2 mps 709 mmHg 35%
    15:00 +37°C° 0 mm 2 mps 709 mmHg 35%
    16:00 +36°C° 0 mm 1 mps 708 mmHg 35%
    17:00 +35°C° 0 mm 1 mps 708 mmHg 36%
    18:00 +34°C° 0 mm 1 mps 708 mmHg 37%
    19:00 +33°C° 0 mm 1 mps 709 mmHg 38%
    20:00 +33°C° 0 mm 1 mps 709 mmHg 39%
    21:00 +32°C° 0 mm 1 mps 710 mmHg 41%
    22:00 +31°C° 0 mm 1 mps 710 mmHg 42%
    23:00 +31°C° 0 mm 1 mps 710 mmHg 44%

    22 January, Tuesday

    Time Temperature Precipitation Wind Pressure Humidity
    00:00 +30°C° 0 mm 1 mps 709 mmHg 46%
    01:00 +30°C° 0 mm 1 mps 709 mmHg 48%
    02:00 +29°C° 0 mm 1 mps 709 mmHg 50%
    03:00 +29°C° 0 mm 1 mps 708 mmHg 52%
    04:00 +28°C° 0 mm 1 mps 708 mmHg 54%
    05:00 +28°C° 0 mm 1 mps 709 mmHg 57%
    06:00 +27°C° 0 mm 1 mps 709 mmHg 60%
    07:00 +27°C° 0 mm 1 mps 709 mmHg 63%
    08:00 +28°C° 0 mm 1 mps 710 mmHg 59%
    09:00 +30°C° 0 mm 2 mps 711 mmHg 55%
    10:00 +31°C° 0 mm 2 mps 711 mmHg 51%
    11:00 +34°C° 0 mm 2 mps 711 mmHg 45%
    12:00 +36°C° 0 mm 2 mps 710 mmHg 38%
    13:00 +38°C° 0 mm 2 mps 710 mmHg 32%
    14:00 +37°C° 0 mm 1 mps 709 mmHg 30%
    15:00 +37°C° 0 mm 1 mps 708 mmHg 27%
    16:00 +39°C° 0 mm 1 mps 708 mmHg 25%
    17:00 +37°C° 0 mm 1 mps 708 mmHg 26%
    18:00 +34°C° 0 mm 0 mps 708 mmHg 27%
    19:00 +33°C° 0 mm 0 mps 708 mmHg 27%
    20:00 +32°C° 0 mm 0 mps 709 mmHg 29%
    21:00 +32°C° 0 mm 0 mps 709 mmHg 30%
    22:00 +33°C° 0 mm 1 mps 709 mmHg 31%
    23:00 +32°C° 0 mm 1 mps 709 mmHg 32%

    23 January, Wednesday

    Time Temperature Precipitation Wind Pressure Humidity
    00:00 +30°C° 0 mm 0 mps 709 mmHg 33%
    01:00 +29°C° 0 mm 0 mps 709 mmHg 34%
    02:00 +30°C° 0 mm 1 mps 708 mmHg 40%
    03:00 +30°C° 0 mm 2 mps 708 mmHg 46%
    04:00 +29°C° 0 mm 2 mps 708 mmHg 52%
    05:00 +28°C° 0.3 mm 2 mps 708 mmHg 59%
    06:00 +27°C° 0.3 mm 2 mps 709 mmHg 66%
    07:00 +27°C° 0.3 mm 1 mps 709 mmHg 74%
    08:00 +28°C° 0 mm 2 mps 710 mmHg 67%
    09:00 +29°C° 0 mm 2 mps 710 mmHg 60%
    10:00 +31°C° 0 mm 3 mps 711 mmHg 54%
    11:00 +34°C° 0 mm 3 mps 710 mmHg 45%
    12:00 +35°C° 0 mm 2 mps 710 mmHg 37%
    13:00 +37°C° 0 mm 2 mps 709 mmHg 28%
    14:00 +38°C° 0 mm 2 mps 709 mmHg 26%
    15:00 +39°C° 0 mm 2 mps 708 mmHg 23%
    16:00 +39°C° 0 mm 1 mps 707 mmHg 21%
    17:00 +37°C° 0 mm 1 mps 707 mmHg 22%
    18:00 +36°C° 0 mm 1 mps 708 mmHg 23%
    19:00 +35°C° 0 mm 1 mps 708 mmHg 24%
    20:00 +34°C° 0 mm 1 mps 708 mmHg 24%
    21:00 +31°C° 0 mm 0 mps 708 mmHg 25%
    22:00 +30°C° 0 mm 0 mps 709 mmHg 25%
    23:00 +32°C° 0 mm 1 mps 709 mmHg 28%
    Show more